| time (UTC) | temp F | wind direction | speed MPH | gust MPH | rain 1hr in | rain 24hr in | rain mn in | humidity % | barometer mb |
| 20260904115004 | 68 | 123 | 1.0 | 3.0 | 0.00 | 0.01 | 0.01 | 94 | 1009.3 |
| 20260904114755 | 68 | 142 | 1.0 | 3.0 | 0.00 | 0.01 | 0.01 | 94 | 1009.3 |
| 20260904114007 | 67 | 129 | 0.0 | 3.0 | 0.00 | 0.01 | 0.01 | 94 | 1009.3 |
| 20260904113054 | 67 | 136 | 0.0 | 2.0 | 0.00 | 0.01 | 0.01 | 94 | 1009.2 |
| 20260904113004 | 67 | 136 | 0.0 | 3.0 | 0.00 | 0.01 | 0.01 | 94 | 1009.2 |
| 20260904112007 | 67 | 150 | 0.0 | 2.0 | 0.00 | 0.01 | 0.01 | 94 | 1009.3 |
| 20260904111547 | 66 | 152 | 0.0 | 1.0 | 0.00 | 0.01 | 0.01 | 94 | 1009.2 |
| 20260904111004 | 66 | 152 | 0.0 | 2.0 | 0.00 | 0.01 | 0.01 | 94 | 1009.3 |
| 20260904110049 | 66 | 152 | 0.0 | 0.0 | 0.00 | 0.01 | 0.01 | 94 | 1009.3 |
| 20260904110004 | 66 | 152 | 0.0 | 1.0 | 0.00 | 0.01 | 0.01 | 94 | 1009.3 |
| 20260904105004 | 66 | 152 | 0.0 | 0.0 | 0.00 | 0.01 | 0.01 | 94 | 1009.4 |
| 20260904104549 | 66 | 152 | 0.0 | 0.0 | 0.00 | 0.01 | 0.01 | 94 | 1009.4 |
| 20260904104003 | 66 | 152 | 0.0 | 0.0 | 0.00 | 0.01 | 0.01 | 94 | 1009.5 |
| 20260904103054 | 66 | 152 | 0.0 | 0.0 | 0.00 | 0.01 | 0.01 | 94 | 1009.4 |
| 20260904101549 | 66 | 184 | 0.0 | 0.0 | 0.00 | 0.01 | 0.01 | 94 | 1009.5 |
| 20260904100048 | 66 | 128 | 0.0 | 1.0 | 0.00 | 0.01 | 0.01 | 94 | 1009.4 |
| 20260904100007 | 66 | 128 | 0.0 | 3.0 | 0.00 | 0.01 | 0.01 | 94 | 1009.4 |
| 20260904094608 | 66 | 198 | 0.0 | 0.0 | 0.00 | 0.01 | 0.01 | 93 | 1009.5 |
| 20260904094010 | 66 | 198 | 0.0 | 2.0 | 0.00 | 0.01 | 0.01 | 93 | 1009.7 |
| 20260904093057 | 67 | 253 | 1.0 | 1.0 | 0.00 | 0.01 | 0.01 | 93 | 1010.3 |
| 20260904093004 | 67 | 253 | 2.0 | 3.0 | 0.00 | 0.01 | 0.01 | 93 | 1010.3 |
| 20260904092004 | 66 | 257 | 0.0 | 6.0 | 0.00 | 0.01 | 0.01 | 92 | 1010.2 |
| 20260904091549 | 66 | 305 | 3.0 | 6.0 | 0.00 | 0.01 | 0.01 | 92 | 1009.9 |
| 20260904091004 | 66 | 247 | 1.0 | 3.0 | 0.00 | 0.01 | 0.01 | 92 | 1010.5 |
| 20260904090054 | 66 | 94 | 0.0 | 0.0 | 0.00 | 0.01 | 0.01 | 92 | 1010.1 |
| 20260904090004 | 66 | 94 | 0.0 | 0.0 | 0.00 | 0.01 | 0.01 | 92 | 1010.1 |
| 20260904085004 | 66 | 94 | 0.0 | 2.0 | 0.00 | 0.01 | 0.01 | 92 | 1009.9 |
| 20260904084549 | 66 | 94 | 0.0 | 0.0 | 0.00 | 0.01 | 0.01 | 92 | 1009.7 |
| 20260904084004 | 66 | 94 | 0.0 | 0.0 | 0.00 | 0.01 | 0.01 | 92 | 1009.7 |
| 20260904083048 | 66 | 94 | 0.0 | 0.0 | 0.00 | 0.01 | 0.01 | 92 | 1009.5 |
| 20260904083007 | 66 | 94 | 0.0 | 2.0 | 0.00 | 0.01 | 0.01 | 92 | 1009.5 |
| 20260904081548 | 66 | 94 | 0.0 | 2.0 | 0.00 | 0.01 | 0.01 | 92 | 1009.5 |
| 20260904080051 | 66 | 91 | 0.0 | 1.0 | 0.00 | 0.01 | 0.01 | 92 | 1009.6 |
| 20260904080004 | 66 | 91 | 0.0 | 3.0 | 0.00 | 0.01 | 0.01 | 92 | 1009.6 |
| 20260904075011 | 66 | 85 | 0.0 | 3.0 | 0.00 | 0.01 | 0.01 | 92 | 1009.6 |
| 20260904074547 | 66 | 74 | 0.0 | 2.0 | 0.00 | 0.01 | 0.01 | 92 | 1009.7 |
| 20260904074003 | 66 | 49 | 1.0 | 3.0 | 0.00 | 0.01 | 0.01 | 92 | 1009.5 |
| 20260904073052 | 66 | 88 | 0.0 | 2.0 | 0.00 | 0.01 | 0.01 | 92 | 1009.4 |
| 20260904073011 | 66 | 88 | 0.0 | 2.0 | 0.00 | 0.01 | 0.01 | 92 | 1009.4 |
| 20260904072003 | 66 | 88 | 0.0 | 2.0 | 0.00 | 0.01 | 0.01 | 92 | 1009.4 |
| 20260904071548 | 66 | 88 | 0.0 | 1.0 | 0.00 | 0.01 | 0.01 | 92 | 1009.5 |
| 20260904071011 | 66 | 88 | 0.0 | 3.0 | 0.00 | 0.01 | 0.01 | 92 | 1009.6 |
| 20260904070132 | 66 | 86 | 0.0 | 0.0 | 0.00 | 0.01 | 0.01 | 92 | 1009.8 |
| 20260904070004 | 66 | 86 | 0.0 | 3.0 | 0.00 | 0.01 | 0.01 | 92 | 1009.8 |
| 20260904065003 | 65 | 87 | 0.0 | 6.0 | 0.00 | 0.01 | 0.01 | 92 | 1009.9 |
| 20260904064554 | 65 | 116 | 0.0 | 2.0 | 0.00 | 0.01 | 0.01 | 92 | 1009.9 |
| 20260904064004 | 65 | 104 | 0.0 | 2.0 | 0.00 | 0.01 | 0.01 | 92 | 1010.1 |
| 20260904063049 | 65 | 104 | 0.0 | 2.0 | 0.00 | 0.01 | 0.01 | 92 | 1010.3 |
| 20260904063007 | 65 | 104 | 0.0 | 2.0 | 0.00 | 0.01 | 0.01 | 92 | 1010.3 |
| 20260904062004 | 65 | 104 | 0.0 | 2.0 | 0.00 | 0.01 | 0.01 | 92 | 1010.4 |
| 20260904061549 | 65 | 64 | 0.0 | 2.0 | 0.00 | 0.01 | 0.01 | 92 | 1010.7 |
| 20260904061004 | 66 | 72 | 0.0 | 3.0 | 0.00 | 0.01 | 0.01 | 91 | 1010.9 |
| 20260904060050 | 66 | 47 | 0.0 | 1.0 | 0.01 | 0.01 | 0.01 | 91 | 1010.9 |
| 20260904060011 | 66 | 47 | 0.0 | 6.0 | 0.01 | 0.01 | 0.01 | 91 | 1010.9 |
| 20260904055004 | 66 | 49 | 0.0 | 3.0 | 0.01 | 0.01 | 0.01 | 92 | 1010.5 |
| 20260904054549 | 66 | 31 | 0.0 | 2.0 | 0.01 | 0.01 | 0.01 | 91 | 1010.7 |
| 20260904054004 | 66 | 35 | 1.0 | 3.0 | 0.01 | 0.01 | 0.01 | 91 | 1010.7 |
| 20260904053048 | 67 | 36 | 0.0 | 0.0 | 0.01 | 0.01 | 0.01 | 91 | 1010.9 |
| 20260904052003 | 67 | 319 | 1.0 | 3.0 | 0.01 | 0.01 | 0.01 | 90 | 1010.9 |
| 20260904051548 | 68 | 299 | 1.0 | 3.0 | 0.01 | 0.01 | 0.01 | 91 | 1010.8 |
| 20260904051006 | 68 | 67 | 1.0 | 3.0 | 0.01 | 0.01 | 0.01 | 91 | 1010.6 |
| 20260904050057 | 69 | 354 | 0.0 | 1.0 | 0.00 | 0.00 | 0.00 | 89 | 1010.5 |
| 20260904050004 | 69 | 354 | 0.0 | 6.0 | 0.00 | 0.00 | 0.00 | 89 | 1010.5 |
| 20260904044547 | 69 | 121 | 0.0 | 0.0 | 0.00 | 0.00 | 0.00 | 91 | 1010.8 |
| 20260904043050 | 69 | 123 | 1.0 | 3.0 | 0.00 | 0.00 | 0.00 | 91 | 1010.4 |
| 20260904043004 | 69 | 123 | 1.0 | 3.0 | 0.00 | 0.00 | 0.00 | 91 | 1010.4 |
| 20260904042004 | 69 | 110 | 1.0 | 3.0 | 0.00 | 0.00 | 0.00 | 91 | 1010.3 |
| 20260904041547 | 69 | 109 | 0.0 | 2.0 | 0.00 | 0.00 | 0.00 | 91 | 1010.4 |
| 20260904041007 | 69 | 126 | 1.0 | 8.0 | 0.00 | 0.00 | 0.00 | 91 | 1010.3 |
| 20260904040048 | 69 | 124 | 0.0 | 2.0 | 0.00 | 0.00 | 0.00 | 90 | 1010.3 |
| 20260904040004 | 69 | 124 | 1.0 | 5.0 | 0.00 | 0.00 | 0.00 | 90 | 1010.3 |
| 20260904035010 | 69 | 75 | 2.0 | 5.0 | 0.00 | 0.00 | 0.00 | 90 | 1010.0 |
| 20260904034547 | 69 | 116 | 1.0 | 3.0 | 0.00 | 0.00 | 0.00 | 90 | 1010.2 |
| 20260904034003 | 69 | 137 | 1.0 | 6.0 | 0.00 | 0.00 | 0.00 | 91 | 1010.3 |
| 20260904033049 | 69 | 148 | 0.0 | 0.0 | 0.00 | 0.00 | 0.00 | 91 | 1010.4 |
| 20260904033010 | 69 | 148 | 0.0 | 2.0 | 0.00 | 0.00 | 0.00 | 91 | 1010.4 |
| 20260904032004 | 69 | 138 | 0.0 | 2.0 | 0.00 | 0.00 | 0.00 | 91 | 1010.6 |
| 20260904031547 | 69 | 146 | 0.0 | 0.0 | 0.00 | 0.00 | 0.00 | 92 | 1010.6 |
| 20260904031004 | 68 | 146 | 1.0 | 3.0 | 0.00 | 0.00 | 0.00 | 92 | 1010.5 |
| 20260904030048 | 68 | 88 | 0.0 | 1.0 | 0.00 | 0.00 | 0.00 | 92 | 1010.6 |
| 20260904030004 | 68 | 88 | 0.0 | 2.0 | 0.00 | 0.00 | 0.00 | 92 | 1010.6 |
| 20260904025004 | 68 | 82 | 0.0 | 6.0 | 0.00 | 0.00 | 0.00 | 92 | 1010.4 |
| 20260904024549 | 68 | 82 | 0.0 | 0.0 | 0.00 | 0.00 | 0.00 | 91 | 1010.4 |
| 20260904023049 | 68 | 118 | 0.0 | 0.0 | 0.00 | 0.00 | 0.00 | 92 | 1009.9 |
| 20260904023003 | 68 | 118 | 0.0 | 2.0 | 0.00 | 0.00 | 0.00 | 92 | 1009.9 |
| 20260904022004 | 68 | 116 | 1.0 | 3.0 | 0.00 | 0.00 | 0.00 | 91 | 1009.8 |
| 20260904021647 | 68 | 188 | 0.0 | 0.0 | 0.00 | 0.00 | 0.00 | 91 | 1009.8 |
| 20260904020049 | 69 | 188 | 0.0 | 0.0 | 0.00 | 0.00 | 0.00 | 91 | 1009.9 |
| 20260904020003 | 69 | 188 | 0.0 | 0.0 | 0.00 | 0.00 | 0.00 | 91 | 1009.9 |
| 20260904015004 | 69 | 189 | 0.0 | 0.0 | 0.00 | 0.00 | 0.00 | 90 | 1010.2 |
| 20260904014551 | 69 | 188 | 0.0 | 0.0 | 0.00 | 0.00 | 0.00 | 90 | 1010.3 |
| 20260904014007 | 69 | 188 | 0.0 | 0.0 | 0.00 | 0.00 | 0.00 | 88 | 1010.4 |
| 20260904013049 | 71 | 189 | 0.0 | 0.0 | 0.00 | 0.00 | 0.00 | 84 | 1010.4 |
| 20260904013007 | 71 | 189 | 0.0 | 0.0 | 0.00 | 0.00 | 0.00 | 84 | 1010.4 |
| 20260904012004 | 72 | 189 | 0.0 | 2.0 | 0.00 | 0.00 | 0.00 | 80 | 1010.2 |
| 20260904011549 | 72 | 189 | 0.0 | 1.0 | 0.00 | 0.00 | 0.00 | 79 | 1010.4 |
| 20260904011006 | 73 | 189 | 0.0 | 3.0 | 0.00 | 0.00 | 0.00 | 77 | 1010.2 |
| 20260904010050 | 73 | 140 | 1.0 | 2.0 | 0.00 | 0.00 | 0.00 | 78 | 1010.1 |
| 20260904010007 | 73 | 140 | 2.0 | 5.0 | 0.00 | 0.00 | 0.00 | 78 | 1010.1 |
| 20260904005003 | 72 | 97 | 0.0 | 2.0 | 0.00 | 0.00 | 0.00 | 77 | 1010.0 |
| 20260904004847 | 73 | 97 | 0.0 | 0.0 | 0.00 | 0.00 | 0.00 | 76 | 1009.9 |
| 20260904004004 | 73 | 97 | 0.0 | 2.0 | 0.00 | 0.00 | 0.00 | 75 | 1009.8 |
| 20260904003249 | 73 | 97 | 0.0 | 0.0 | 0.00 | 0.00 | 0.00 | 74 | 1009.8 |
| 20260904003003 | 73 | 97 | 0.0 | 3.0 | 0.00 | 0.00 | 0.00 | 74 | 1009.8 |
| 20260904002004 | 74 | 113 | 0.0 | 2.0 | 0.00 | 0.00 | 0.00 | 72 | 1009.9 |
| 20260904001649 | 74 | 113 | 0.0 | 1.0 | 0.00 | 0.00 | 0.00 | 71 | 1010.3 |
| 20260904000048 | 75 | 82 | 0.0 | 2.0 | 0.00 | 0.00 | 0.00 | 70 | 1009.8 |
| 20260904000005 | 75 | 82 | 0.0 | 3.0 | 0.00 | 0.00 | 0.00 | 70 | 1009.8 |
| 20260903234547 | 76 | 82 | 0.0 | 0.0 | 0.00 | 0.00 | 0.00 | 69 | 1009.7 |
| 20260903234004 | 76 | 75 | 0.0 | 2.0 | 0.00 | 0.00 | 0.00 | 69 | 1009.7 |
| 20260903233051 | 76 | 38 | 1.0 | 3.0 | 0.00 | 0.00 | 0.00 | 69 | 1009.7 |
| 20260903233007 | 76 | 38 | 1.0 | 3.0 | 0.00 | 0.00 | 0.00 | 69 | 1009.7 |
| 20260903232006 | 77 | 59 | 0.0 | 3.0 | 0.00 | 0.00 | 0.00 | 67 | 1009.6 |
| 20260903231550 | 77 | 44 | 0.0 | 1.0 | 0.00 | 0.00 | 0.00 | 67 | 1009.5 |
| 20260903230050 | 79 | 65 | 0.0 | 1.0 | 0.00 | 0.00 | 0.00 | 63 | 1009.2 |
| 20260903230005 | 79 | 65 | 0.0 | 7.0 | 0.00 | 0.00 | 0.00 | 63 | 1009.2 |
| 20260903224549 | 83 | 246 | 0.0 | 0.0 | 0.00 | 0.00 | 0.00 | 56 | 1009.5 |
| 20260903224005 | 83 | 213 | 6.0 | 10.0 | 0.00 | 0.00 | 0.00 | 59 | 1009.5 |
| 20260903223050 | 84 | 162 | 2.0 | 2.0 | 0.00 | 0.00 | 0.00 | 61 | 1009.5 |
| 20260903223005 | 84 | 162 | 2.0 | 3.0 | 0.00 | 0.00 | 0.00 | 61 | 1009.5 |
| 20260903222005 | 84 | 148 | 1.0 | 9.0 | 0.00 | 0.00 | 0.00 | 60 | 1009.4 |
| 20260903221550 | 85 | 177 | 0.0 | 1.0 | 0.00 | 0.00 | 0.00 | 57 | 1009.4 |
| 20260903221006 | 84 | 121 | 2.0 | 6.0 | 0.00 | 0.00 | 0.00 | 58 | 1009.4 |
| 20260903220050 | 84 | 231 | 6.0 | 6.0 | 0.00 | 0.00 | 0.00 | 60 | 1009.4 |
| 20260903220005 | 84 | 231 | 5.0 | 8.0 | 0.00 | 0.00 | 0.00 | 60 | 1009.4 |
| 20260903215005 | 85 | 96 | 0.0 | 8.0 | 0.00 | 0.00 | 0.00 | 58 | 1009.4 |
| 20260903214549 | 84 | 163 | 0.0 | 1.0 | 0.00 | 0.00 | 0.00 | 60 | 1009.5 |
| 20260903214008 | 83 | 132 | 1.0 | 9.0 | 0.00 | 0.00 | 0.00 | 59 | 1009.5 |
| 20260903213049 | 83 | 198 | 1.0 | 2.0 | 0.00 | 0.00 | 0.00 | 59 | 1009.3 |
| 20260903213012 | 83 | 198 | 2.0 | 8.0 | 0.00 | 0.00 | 0.00 | 59 | 1009.3 |
| 20260903212005 | 84 | 153 | 1.0 | 7.0 | 0.00 | 0.00 | 0.00 | 58 | 1009.4 |
| 20260903211549 | 85 | 207 | 1.0 | 3.0 | 0.00 | 0.00 | 0.00 | 57 | 1009.3 |
| 20260903211005 | 84 | 96 | 2.0 | 8.0 | 0.00 | 0.00 | 0.00 | 60 | 1009.3 |
| 20260903210059 | 82 | 229 | 1.0 | 2.0 | 0.00 | 0.00 | 0.00 | 59 | 1009.3 |
| 20260903210012 | 82 | 229 | 1.0 | 3.0 | 0.00 | 0.00 | 0.00 | 59 | 1009.3 |
| 20260903205005 | 84 | 157 | 1.0 | 8.0 | 0.00 | 0.00 | 0.00 | 59 | 1009.5 |
| 20260903204550 | 84 | 139 | 1.0 | 2.0 | 0.00 | 0.00 | 0.00 | 58 | 1009.6 |
| 20260903204005 | 83 | 104 | 1.0 | 7.0 | 0.00 | 0.00 | 0.00 | 63 | 1009.7 |
| 20260903203059 | 82 | 103 | 1.0 | 6.0 | 0.00 | 0.00 | 0.00 | 64 | 1009.8 |
| 20260903203005 | 82 | 103 | 1.0 | 6.0 | 0.00 | 0.00 | 0.00 | 64 | 1009.8 |
| 20260903202006 | 81 | 171 | 1.0 | 3.0 | 0.00 | 0.00 | 0.00 | 66 | 1009.8 |
| 20260903201550 | 80 | 153 | 1.0 | 1.0 | 0.00 | 0.00 | 0.00 | 66 | 1009.9 |